Temp
-6 -6 -6 -6 -6 -6 -6 -6 -6 -5 -5 -6 -5 -6 -6 -6 -6 -6 -6 -6 -6 -6 -6 -6 -6 -7 -7 -7 -7 -7 -7 -7 -7 -7 -7 -7 -7 -7 -7 -7 -7 -7 -7 -8 -8 -8 -8 -8 -7
-7 -6 -6 -6 -6 -7 -6 -6 -6 -6 -6 -6 -6 -6 -6 -6 -6 -6 -6 -6 -6 -6 -6 -7 -7 -7 -7 -7 -7 -7 -7 -7 -7 -7 -7 -7 -7 -7 -7 -7 -7 -7 -7 -8 -8 -8 -8 -8 -8
-7 -7 -7 -6 -7 -7 -7 -7 -6 -6 -6 -6 -6 -6 -6 -6 -6 -7 -7 -6 -6 -6 -7 -7 -7 -7 -7 -7 -7 -7 -7 -7 -7 -7 -7 -7 -7 -7 -7 -7 -7 -7 -8 -8 -8 -8 -8 -8 -8
-8 -7 -7 -7 -7 -7 -7 -7 -7 -7 -7 -7 -7 -7 -7 -7 -7 -7 -7 -7 -7 -7 -7 -7 -6 -6 -7 -7 -7 -7 -7 -7 -7 -7 -7 -7 -7 -7 -7 -7 -8 -8 -8 -8 -8 -8 -8 -8 -8
-8 -8 -8 -8 -7 -7 -7 -7 -7 -8 -7 -7 -7 -7 -7 -7 -7 -7 -7 -6 -6 -6 -6 -6 -6 -6 -6 -6 -7 -7 -7 -7 -7 -7 -7 -7 -7 -7 -7 -8 -8 -8 -8 -8 -8 -8 -8 -8 -8
-9 -8 -8 -8 -8 -7 -8 -8 -8 -7 -8 -7 -7 -7 -7 -7 -8 -7 -7 -7 -6 -6 -6 -6 -6 -6 -6 -6 -6 -7 -7 -7 -7 -7 -7 -7 -7 -8 -8 -8 -8 -8 -8 -8 -8 -8 -8 -8 -8
-9 -9 -8 -8 -8 -8 -8 -7 -7 -7 -8 -7 -7 -7 -7 -7 -7 -7 -7 -7 -7 -6 -6 -6 -6 -6 -6 -6 -6 -7 -7 -7 -7 -7 -7 -7 -8 -8 -8 -8 -8 -8 -8 -8 -8 -8 -8 -8 -8
-9 -9 -9 -9 -9 -9 -8 -8 -8 -7 -7 -7 -7 -8 -8 -7 -7 -7 -7 -7 -7 -7 -6 -6 -6 -6 -6 -7 -7 -7 -7 -7 -7 -7 -7 -8 -8 -8 -8 -8 -9 -9 -8 -8 -8 -8 -8 -8 -8
-10 -9 -9 -9 -9 -9 -9 -8 -8 -8 -7 -7 -7 -7 -8 -8 -7 -7 -7 -7 -7 -6 -6 -7 -6 -6 -7 -7 -7 -7 -7 -7 -8 -8 -8 -8 -8 -8 -8 -8 -9 -9 -8 -8 -8 -8 -8 -8 -8
-10 -10 -9 -9 -8 -9 -9 -8 -8 -8 -7 -7 -7 -7 -7 -7 -7 -7 -6 -6 -6 -6 -6 -7 -7 -7 -7 -7 -7 -7 -7 -7 -8 -8 -8 -8 -8 -8 -8 -9 -9 -9 -9 -8 -8 -8 -8 -8 -8
-10 -10 -9 -9 -9 -9 -9 -8 -8 -8 -8 -7 -7 -7 -7 -7 -7 -7 -7 -6 -6 -6 -6 -7 -7 -7 -7 -7 -7 -7 -8 -8 -8 -8 -9 -9 -9 -9 -9 -8 -8 -8 -8 -8 -8 -8 -8 -8 -8
-10 -10 -9 -9 -9 -8 -8 -8 -8 -8 -8 -7 -7 -7 -7 -7 -7 -7 -7 -7 -7 -7 -7 -7 -7 -7 -8 -8 -8 -8 -8 -8 -8 -8 -9 -8 -9 -9 -9 -8 -8 -8 -8 -8 -8 -8 -8 -8 -8
-10 -10 -9 -9 -9 -9 -8 -8 -8 -8 -8 -7 -7 -7 -7 -7 -7 -7 -7 -7 -7 -7 -7 -7 -7 -7 -8 -8 -8 -8 -8 -8 -9 -9 -9 -9 -9 -8 -8 -8 -8 -8 -9 -9 -9 -8 -8 -8 -8
-10 -10 -9 -9 -9 -9 -9 -8 -8 -8 -8 -8 -8 -7 -7 -7 -7 -7 -7 -7 -7 -7 -7 -7 -7 -7 -8 -8 -8 -8 -9 -9 -9 -9 -9 -9 -9 -9 -9 -9 -9 -9 -9 -9 -9 -9 -9 -9 -9
-10 -10 -10 -9 -9 -9 -8 -8 -8 -8 -8 -7 -8 -7 -7 -7 -7 -7 -7 -7 -7 -7 -7 -7 -7 -8 -8 -8 -9 -9 -9 -9 -9 -9 -9 -9 -9 -9 -9 -9 -9 -9 -9 -9 -9 -9 -9 -9 -9
-10 -10 -10 -10 -9 -9 -8 -8 -8 -8 -8 -8 -8 -8 -8 -8 -8 -8 -8 -8 -7 -7 -8 -8 -8 -8 -8 -9 -9 -9 -9 -9 -9 -9 -10 -10 -10 -10 -10 -10 -10 -10 -10 -9 -9 -9 -9 -9 -9
-10 -10 -10 -10 -9 -9 -8 -9 -9 -8 -8 -8 -8 -8 -8 -8 -8 -8 -8 -8 -8 -8 -8 -8 -9 -9 -9 -9 -9 -9 -10 -10 -10 -10 -10 -10 -10 -10 -10 -10 -10 -10 -10 -10 -10 -10 -10 -10 -9
-10 -10 -10 -10 -9 -9 -8 -9 -9 -9 -9 -9 -9 -8 -8 -8 -8 -8 -8 -8 -8 -8 -9 -9 -9 -9 -10 -10 -10 -10 -10 -10 -10 -10 -10 -10 -10 -10 -10 -10 -10 -10 -10 -10 -10 -10 -10 -10 -10
-10 -10 -10 -10 -9 -9 -9 -9 -10 -9 -9 -9 -9 -9 -9 -9 -9 -9 -9 -9 -9 -9 -9 -10 -10 -10 -10 -10 -11 -11 -11 -11 -11 -11 -11 -11 -11 -11 -11 -11 -11 -11 -11 -11 -10 -10 -10 -10 -10
-10 -10 -10 -9 -9 -9 -9 -10 -10 -10 -10 -9 -9 -9 -9 -10 -10 -9 -10 -10 -10 -10 -10 -10 -11 -11 -11 -11 -11 -11 -11 -11 -11 -11 -12 -12 -12 -12 -12 -12 -12 -11 -11 -11 -11 -11 -11 -11 -11
-10 -10 -10 -9 -9 -9 -9 -9 -10 -10 -10 -10 -10 -10 -10 -10 -10 -10 -10 -11 -11 -11 -11 -11 -11 -12 -12 -12 -12 -12 -12 -12 -12 -12 -12 -12 -12 -12 -12 -12 -12 -12 -12 -12 -12 -12 -12 -11 -12
-10 -10 -10 -10 -10 -10 -10 -9 -10 -10 -10 -10 -10 -10 -10 -10 -10 -11 -11 -11 -11 -12 -12 -12 -12 -12 -12 -12 -13 -13 -13 -13 -13 -13 -13 -13 -13 -13 -12 -12 -12 -13 -13 -13 -13 -13 -13 -13 -13
-11 -11 -11 -10 -10 -10 -10 -10 -10 -10 -10 -10 -10 -10 -10 -11 -11 -11 -12 -12 -12 -12 -12 -13 -13 -13 -13 -13 -13 -13 -13 -13 -13 -13 -13 -13 -13 -13 -13 -13 -14 -14 -14 -14 -14 -14 -14 -14 -14
-11 -11 -11 -11 -10 -10 -11 -10 -10 -11 -11 -11 -11 -11 -11 -11 -12 -12 -12 -12 -12 -13 -13 -14 -14 -14 -14 -14 -13 -13 -14 -14 -14 -14 -14 -14 -14 -14 -15 -15 -15 -15 -15 -15 -15 -15 -15 -15 -15
-12 -12 -11 -11 -11 -11 -11 -11 -11 -11 -11 -12 -12 -12 -12 -12 -12 -13 -13 -13 -13 -14 -14 -14 -14 -14 -14 -14 -14 -14 -14 -14 -14 -14 -14 -15 -15 -15 -15 -16 -16 -16 -16 -15 -15 -15 -15 -15 -15
-12 -12 -12 -11 -11 -11 -11 -11 -11 -12 -12 -12 -12 -12 -13 -13 -13 -13 -14 -14 -14 -14 -14 -14 -14 -14 -14 -15 -15 -15 -15 -15 -15 -16 -16 -16 -16 -16 -16 -16 -16 -16 -16 -16 -16 -16 -16 -16 -15
-12 -12 -12 -12 -11 -11 -12 -12 -12 -12 -12 -13 -13 -13 -13 -13 -14 -14 -14 -14 -14 -14 -14 -15 -15 -15 -15 -15 -16 -16 -16 -16 -17 -17 -17 -17 -17 -17 -16 -16 -16 -16 -16 -16 -16 -16 -16 -16 -16
-12 -12 -12 -12 -12 -12 -12 -12 -13 -13 -13 -13 -13 -14 -14 -14 -14 -14 -14 -14 -14 -15 -15 -15 -16 -16 -16 -16 -16 -17 -17 -17 -17 -17 -17 -17 -17 -17 -17 -17 -17 -17 -17 -17 -17 -17 -18 -18 -19
-12 -13 -12 -13 -13 -13 -13 -13 -13 -13 -14 -14 -14 -14 -14 -14 -14 -14 -15 -15 -15 -16 -16 -16 -16 -17 -17 -17 -18 -18 -18 -18 -18 -18 -18 -18 -18 -18 -18 -18 -18 -18 -18 -18 -19 -19 -20 -21 -22
-13 -13 -13 -13 -13 -13 -13 -13 -14 -14 -14 -14 -14 -14 -14 -15 -15 -15 -15 -16 -16 -16 -17 -17 -17 -18 -18 -18 -18 -18 -18 -18 -18 -18 -18 -19 -19 -19 -19 -19 -20 -20 -20 -20 -21 -22 -22 -22 -22
Height
5912 5914 5915 5916 5919 5917 5917 5917 5917 5917 5918 5919 5919 5919 5920 5920 5920 5921 5918 5916 5915 5915 5913 5913 5913 5911 5909 5908 5907 5906 5905 5904 5903 5902 5902 5901 5899 5898 5897 5897 5896 5895 5894 5893 5892 5891 5890 5889 5887
5911 5912 5913 5914 5916 5915 5915 5915 5915 5915 5917 5917 5917 5918 5918 5918 5917 5917 5916 5914 5914 5913 5912 5911 5910 5909 5908 5906 5904 5903 5902 5901 5900 5900 5899 5898 5897 5897 5896 5895 5894 5893 5892 5891 5890 5889 5888 5887 5886
5909 5910 5912 5913 5913 5913 5914 5914 5914 5914 5915 5916 5916 5916 5916 5916 5915 5915 5913 5913 5912 5911 5910 5909 5908 5907 5905 5904 5902 5901 5900 5899 5898 5897 5896 5895 5894 5894 5893 5892 5891 5890 5889 5889 5888 5887 5886 5885 5884
5907 5909 5911 5910 5911 5911 5912 5912 5912 5913 5912 5913 5913 5914 5914 5914 5914 5912 5911 5911 5910 5909 5908 5906 5905 5903 5903 5902 5900 5899 5898 5897 5896 5895 5894 5893 5892 5891 5890 5889 5888 5888 5887 5887 5886 5885 5884 5883 5882
5905 5907 5908 5908 5909 5909 5909 5910 5910 5911 5911 5912 5912 5911 5911 5911 5910 5909 5908 5908 5907 5906 5904 5903 5902 5901 5900 5899 5898 5897 5896 5895 5893 5892 5891 5890 5889 5888 5887 5886 5885 5885 5884 5883 5883 5882 5882 5882 5881
5902 5904 5906 5906 5906 5907 5907 5908 5908 5909 5909 5910 5911 5910 5909 5908 5907 5906 5905 5904 5903 5902 5901 5900 5898 5897 5896 5896 5895 5894 5892 5891 5890 5889 5888 5887 5885 5884 5884 5883 5882 5882 5881 5880 5880 5880 5879 5879 5879
5899 5901 5902 5904 5904 5904 5904 5905 5905 5906 5906 5907 5908 5907 5907 5906 5904 5903 5903 5901 5899 5899 5897 5895 5895 5893 5893 5892 5891 5890 5888 5887 5886 5885 5884 5883 5882 5881 5880 5879 5879 5878 5878 5877 5876 5876 5876 5876 5876
5895 5898 5900 5901 5902 5901 5902 5902 5901 5902 5903 5903 5903 5905 5904 5903 5902 5901 5900 5898 5896 5896 5894 5892 5891 5890 5889 5888 5887 5886 5885 5884 5883 5882 5881 5880 5879 5878 5877 5876 5875 5874 5874 5874 5873 5873 5873 5873 5873
5890 5895 5897 5897 5898 5898 5899 5899 5898 5898 5898 5899 5899 5900 5901 5900 5898 5898 5897 5896 5894 5892 5891 5889 5887 5886 5885 5884 5884 5882 5881 5880 5879 5878 5877 5876 5875 5874 5873 5872 5872 5871 5870 5870 5869 5869 5869 5869 5868
5887 5890 5893 5894 5894 5895 5896 5896 5895 5895 5895 5895 5895 5896 5897 5896 5895 5894 5894 5892 5891 5889 5888 5885 5883 5882 5881 5879 5878 5877 5877 5876 5875 5873 5872 5871 5870 5870 5869 5869 5868 5867 5866 5865 5865 5865 5864 5864 5864
5883 5886 5889 5890 5890 5891 5892 5892 5892 5892 5891 5890 5890 5891 5892 5892 5892 5891 5890 5888 5887 5886 5885 5883 5881 5878 5876 5874 5873 5872 5872 5871 5869 5868 5867 5866 5865 5865 5864 5863 5863 5862 5861 5861 5860 5859 5859 5858 5857
5880 5882 5885 5885 5887 5888 5888 5888 5889 5889 5887 5886 5886 5886 5887 5887 5887 5887 5886 5884 5883 5881 5880 5879 5877 5875 5873 5871 5870 5868 5866 5864 5863 5862 5862 5861 5860 5859 5858 5858 5858 5857 5856 5855 5854 5853 5852 5852 5851
5875 5879 5881 5881 5882 5883 5884 5884 5884 5883 5882 5882 5882 5882 5882 5882 5882 5881 5880 5879 5878 5877 5875 5873 5871 5869 5868 5867 5866 5864 5862 5860 5858 5856 5855 5854 5853 5853 5852 5852 5851 5850 5849 5848 5847 5846 5845 5844 5843
5872 5874 5877 5878 5878 5878 5879 5881 5880 5878 5877 5877 5877 5877 5877 5877 5876 5876 5874 5873 5872 5870 5869 5867 5865 5863 5862 5861 5859 5858 5856 5855 5853 5851 5850 5849 5847 5846 5845 5844 5843 5842 5841 5840 5839 5838 5837 5836 5835
5868 5870 5873 5875 5874 5874 5874 5877 5873 5874 5873 5873 5873 5872 5872 5871 5870 5869 5868 5867 5865 5863 5862 5860 5859 5857 5855 5854 5852 5850 5848 5847 5846 5844 5843 5841 5840 5839 5838 5836 5835 5834 5833 5832 5830 5829 5828 5827 5826
5863 5866 5869 5870 5870 5871 5871 5873 5869 5868 5868 5868 5867 5866 5865 5864 5863 5862 5861 5859 5858 5856 5854 5853 5851 5849 5848 5846 5844 5842 5840 5839 5838 5837 5835 5834 5832 5830 5829 5827 5826 5824 5823 5821 5819 5818 5816 5815 5814
5858 5862 5865 5865 5865 5865 5867 5868 5864 5863 5862 5862 5861 5860 5859 5858 5857 5856 5854 5852 5851 5849 5847 5845 5843 5841 5840 5838 5836 5834 5833 5831 5830 5828 5826 5824 5822 5820 5818 5817 5815 5813 5811 5809 5807 5805 5803 5800 5799
5854 5856 5858 5861 5860 5859 5861 5862 5859 5858 5858 5856 5855 5854 5853 5851 5849 5848 5846 5845 5843 5841 5840 5837 5835 5833 5832 5830 5827 5825 5824 5822 5820 5818 5816 5814 5811 5809 5807 5804 5802 5799 5797 5794 5793 5790 5788 5786 5785
5849 5851 5852 5854 5853 5854 5854 5857 5854 5851 5852 5850 5849 5849 5848 5845 5843 5841 5839 5837 5835 5834 5832 5830 5827 5825 5823 5821 5819 5817 5815 5813 5811 5809 5806 5803 5800 5797 5794 5791 5787 5785 5782 5779 5777 5775 5772 5769 5767
5844 5846 5847 5847 5846 5848 5849 5852 5849 5846 5844 5844 5843 5842 5840 5839 5836 5833 5831 5829 5827 5825 5824 5822 5819 5817 5815 5813 5811 5809 5806 5803 5801 5798 5795 5791 5787 5784 5780 5776 5773 5769 5767 5763 5760 5758 5756 5753 5748
5838 5840 5841 5842 5841 5842 5843 5845 5844 5841 5839 5838 5836 5834 5833 5831 5829 5826 5824 5821 5819 5817 5815 5813 5811 5809 5807 5805 5802 5799 5796 5792 5790 5786 5782 5778 5774 5770 5766 5762 5759 5755 5752 5748 5744 5740 5736 5733 5730
5833 5835 5836 5837 5836 5836 5837 5837 5839 5835 5833 5831 5829 5827 5825 5823 5821 5819 5816 5814 5811 5809 5807 5804 5803 5801 5799 5797 5793 5790 5785 5781 5777 5773 5769 5764 5760 5755 5751 5747 5743 5739 5735 5731 5727 5722 5718 5714 5710
5829 5829 5830 5830 5830 5830 5832 5828 5831 5829 5826 5824 5822 5820 5818 5816 5814 5812 5809 5807 5805 5802 5800 5798 5796 5793 5790 5787 5783 5778 5773 5769 5764 5760 5755 5750 5745 5741 5736 5732 5727 5721 5716 5712 5708 5703 5699 5695 5690
5823 5824 5824 5825 5825 5825 5825 5824 5822 5821 5819 5817 5815 5813 5811 5810 5808 5805 5803 5801 5798 5795 5792 5790 5786 5783 5780 5775 5770 5765 5760 5755 5749 5745 5740 5735 5730 5725 5720 5714 5709 5704 5698 5693 5689 5684 5679 5673 5668
5818 5820 5819 5819 5819 5819 5818 5817 5816 5814 5812 5810 5808 5806 5805 5803 5801 5799 5796 5794 5791 5787 5784 5780 5776 5772 5766 5761 5756 5751 5745 5740 5735 5729 5724 5719 5714 5708 5703 5697 5692 5686 5680 5674 5668 5662 5656 5649 5644
5813 5815 5814 5812 5813 5813 5811 5810 5809 5807 5805 5804 5802 5800 5797 5795 5793 5791 5788 5785 5781 5777 5773 5768 5763 5758 5753 5747 5741 5736 5730 5724 5718 5713 5707 5701 5696 5690 5684 5678 5672 5666 5659 5652 5645 5638 5630 5623 5616
5809 5809 5809 5807 5806 5805 5805 5804 5802 5801 5799 5797 5795 5792 5790 5787 5785 5781 5778 5774 5770 5766 5761 5755 5749 5744 5738 5733 5727 5721 5715 5709 5703 5697 5690 5684 5677 5670 5664 5657 5651 5643 5635 5628 5620 5613 5604 5595 5586
5803 5804 5803 5802 5799 5799 5798 5797 5795 5794 5792 5789 5787 5784 5782 5778 5775 5771 5767 5763 5759 5753 5748 5742 5736 5731 5725 5719 5712 5706 5700 5694 5688 5681 5673 5666 5659 5651 5644 5637 5629 5621 5613 5604 5595 5586 5576 5567 5559
5798 5798 5797 5796 5795 5792 5792 5791 5789 5786 5784 5781 5778 5775 5772 5768 5764 5760 5756 5751 5746 5741 5735 5729 5723 5717 5711 5705 5698 5692 5685 5678 5670 5663 5655 5648 5641 5632 5624 5615 5606 5596 5587 5577 5568 5559 5551 5543 5537
5792 5792 5791 5790 5790 5787 5785 5785 5782 5778 5775 5772 5769 5766 5762 5758 5754 5749 5745 5739 5733 5727 5722 5716 5710 5704 5698 5691 5684 5676 5669 5661 5654 5646 5638 5629 5621 5611 5601 5592 5582 5572 5563 5553 5545 5538 5531 5526 5520
Wind_Speed
11 10 9 6 5 6 6 6 6 6 5 4 5 4 4 4 5 5 6 7 8 9 10 10 11 12 13 14 13 12 11 11 10 10 11 12 12 12 11 12 11 10 9 10 10 10 10 9 8
13 12 12 10 6 7 7 7 7 8 6 5 6 7 6 6 6 7 8 10 10 10 11 13 13 14 14 14 13 13 12 12 12 12 12 12 12 12 13 13 12 11 10 10 10 10 10 10 10
15 13 13 9 8 10 9 9 8 8 8 8 9 9 8 9 9 9 9 11 11 12 13 14 13 13 13 12 12 12 11 11 11 12 13 12 13 12 13 13 13 13 12 11 11 10 10 10 10
17 16 15 12 11 10 11 11 11 9 10 10 10 12 12 12 11 11 10 11 12 13 14 14 13 13 13 12 12 11 12 12 13 13 13 13 13 13 14 15 16 16 16 14 13 12 11 10 10
20 19 17 16 13 12 11 12 12 10 11 13 14 14 15 14 13 13 13 13 12 13 13 13 13 14 13 12 12 12 13 14 14 15 15 15 15 16 17 17 16 15 15 14 13 12 12 11 10
22 21 19 17 15 14 13 15 16 17 16 16 16 16 16 14 14 14 15 16 14 14 14 14 15 15 14 14 15 15 15 16 17 18 18 19 19 19 18 17 16 16 16 15 13 11 10 10 10
25 22 21 19 16 17 16 15 18 18 17 17 16 15 16 16 15 15 15 17 17 16 17 18 17 17 16 16 15 13 14 15 15 16 17 18 19 18 17 17 16 16 15 14 13 12 11 11 11
28 23 22 20 18 19 19 16 16 17 17 16 16 15 16 16 15 14 14 16 17 16 17 19 19 18 18 16 13 12 15 17 17 17 18 19 19 18 18 18 16 15 14 14 14 13 13 12 12
30 24 22 22 21 20 18 19 19 19 19 19 18 17 16 16 16 14 14 15 16 17 18 19 20 20 20 19 16 18 20 19 21 21 20 20 20 20 18 19 18 19 18 18 17 17 16 17 16
30 26 22 23 23 21 20 20 22 21 21 20 19 17 15 15 15 14 14 16 16 18 19 21 21 22 21 21 21 21 22 22 23 23 23 23 23 23 22 22 22 21 22 20 20 19 18 18 18
30 27 23 24 23 22 20 21 21 21 22 21 19 17 15 14 14 14 16 17 19 19 19 20 21 22 23 23 24 25 27 27 26 26 27 27 27 26 25 25 24 24 23 22 21 21 21 21 22
29 25 23 23 23 20 20 20 19 20 22 22 20 19 16 16 16 17 17 19 20 21 20 20 21 22 23 24 26 28 30 31 32 31 30 29 27 27 27 27 27 26 26 26 26 26 26 26 27
29 24 22 23 22 21 19 19 19 21 23 22 21 19 19 19 20 20 20 21 21 22 22 23 24 24 25 26 27 29 30 31 32 31 30 29 29 29 29 29 29 29 30 31 31 31 32 33 33
29 28 22 22 24 25 23 18 18 23 24 23 22 21 22 22 22 22 23 24 25 26 26 27 28 28 28 29 29 30 30 31 31 31 30 30 31 32 32 33 34 34 35 36 36 36 37 38 38
24 27 21 20 24 25 23 17 23 24 23 23 23 24 24 25 25 26 27 27 28 29 31 31 31 31 31 31 32 32 32 32 32 32 33 33 34 34 35 37 38 39 40 40 41 41 42 43 44
29 29 25 19 23 24 23 17 25 26 24 23 23 25 27 29 28 29 29 31 32 33 33 33 33 33 34 34 35 35 35 35 34 34 35 35 36 37 37 38 40 41 42 44 45 46 48 49 50
32 26 23 22 24 25 22 17 25 27 27 25 26 26 28 29 29 29 30 32 33 34 35 34 34 35 35 36 37 36 36 36 37 37 38 39 40 41 42 43 44 45 46 47 49 51 52 54 55
30 27 32 25 25 26 22 18 24 26 25 27 28 29 29 30 32 32 34 34 35 36 35 35 36 37 37 38 37 37 37 38 39 40 41 43 43 45 46 47 49 50 52 53 55 56 58 59 60
26 26 21 24 28 26 24 16 21 27 24 27 28 28 29 31 32 35 36 36 37 36 36 36 37 37 37 38 39 39 41 42 43 44 45 46 47 49 50 52 54 55 57 58 60 61 63 65 66
25 24 25 28 27 27 24 17 21 25 28 28 29 29 30 31 32 35 35 36 36 36 35 35 36 37 38 39 41 42 44 45 47 47 48 50 51 53 54 56 58 60 61 63 64 66 67 69 71
26 28 29 30 27 28 25 19 18 25 28 29 30 32 32 32 32 34 33 33 34 34 35 35 36 37 39 40 42 44 47 49 50 50 52 54 55 57 58 61 62 63 64 65 67 68 70 71 69
27 26 27 27 27 27 25 26 19 26 29 30 31 32 32 32 31 31 32 33 33 34 35 37 39 41 43 44 46 47 50 52 54 55 55 57 59 61 63 64 66 67 67 67 66 66 67 68 69
23 22 22 23 24 25 22 28 24 26 28 30 31 30 30 30 30 29 30 31 33 36 39 41 42 44 45 47 50 52 54 55 56 58 59 61 62 64 65 66 66 67 68 67 67 67 68 71 73
21 21 22 24 25 27 24 26 29 28 27 27 28 28 28 29 30 31 32 35 37 38 40 41 44 47 49 51 53 55 57 59 61 62 63 64 65 65 65 67 68 68 68 69 70 73 76 80 82
22 22 24 26 25 26 27 27 27 27 27 27 28 28 28 30 31 32 33 35 38 40 42 46 49 51 53 55 57 59 61 62 64 64 65 65 65 66 67 68 69 71 73 75 78 82 84 86 87
20 21 23 28 27 27 27 28 27 27 26 26 27 29 30 30 31 34 36 38 40 44 47 50 52 54 57 58 60 61 62 63 63 63 64 66 67 68 69 70 72 75 78 80 83 85 87 89 92
20 23 24 27 28 28 27 26 27 27 27 28 29 30 32 33 35 37 39 41 45 48 51 53 56 57 59 60 61 60 61 62 63 64 67 69 71 73 75 77 78 80 81 83 86 89 91 93 93
22 23 24 25 29 28 28 28 28 28 29 31 32 32 34 36 38 41 44 47 50 52 54 56 57 58 58 58 59 60 61 64 66 68 71 73 74 76 76 77 79 82 85 87 88 89 88 86 80
21 22 24 26 27 29 29 29 28 30 31 33 34 36 38 41 44 46 48 51 53 54 55 54 54 55 56 58 59 62 65 67 69 70 71 72 72 74 77 80 83 84 85 85 83 78 72 66 61
22 22 24 26 27 28 30 30 30 31 34 36 39 41 43 46 48 50 51 52 51 50 50 51 53 55 57 61 63 64 65 65 66 67 69 72 74 77 79 81 83 82 81 76 68 62 60 60 61
Wind_Direction
232 236 236 229 237 252 254 250 250 239 242 251 259 276 293 299 309 324 318 315 308 304 310 315 313 310 307 305 303 300 298 295 293 291 292 296 302 305 308 310 311 312 311 313 315 313 311 310 310
234 239 248 235 229 257 267 268 269 271 270 277 278 279 291 304 312 308 298 294 302 308 312 312 313 311 308 305 302 296 293 292 291 288 287 290 293 297 298 298 299 298 296 296 300 304 304 304 304
244 245 255 250 235 247 255 259 259 266 279 283 287 290 294 296 295 290 291 297 301 307 309 310 309 310 307 301 300 296 294 289 285 287 288 287 289 290 290 290 288 287 284 284 286 288 290 294 294
251 251 255 255 247 245 248 248 240 250 268 279 286 291 293 293 289 285 287 293 299 303 307 307 308 307 301 297 295 296 295 293 290 287 286 287 286 286 286 286 288 289 287 285 282 281 277 278 284
250 256 263 261 252 251 250 253 237 244 265 277 283 280 281 283 283 291 299 298 298 303 304 305 305 303 301 302 301 297 293 288 287 286 284 284 284 284 284 286 288 287 286 285 284 282 281 279 278
248 255 259 262 261 257 250 247 251 263 270 267 265 266 271 276 282 291 298 301 306 309 305 305 306 305 304 298 293 293 289 287 283 281 280 279 279 280 283 284 284 285 285 285 284 280 277 279 282
247 252 257 258 258 262 255 251 254 258 260 263 261 262 269 273 280 289 293 297 302 306 306 307 307 304 302 298 297 295 289 290 285 283 282 279 279 280 280 277 280 283 282 283 283 284 285 285 285
250 248 250 255 260 262 262 259 258 262 261 261 266 267 270 273 277 282 287 291 296 298 298 300 299 294 295 294 291 290 291 291 291 290 287 282 280 279 277 273 272 270 272 275 278 281 284 285 288
251 249 248 249 252 260 267 273 272 270 277 279 279 277 272 269 270 274 278 285 289 293 294 292 293 295 293 293 292 291 292 294 293 290 286 281 281 281 275 268 266 268 269 270 271 274 277 280 281
248 251 245 249 252 257 264 267 275 280 281 282 280 274 268 261 263 268 275 282 284 287 289 291 292 291 289 291 293 291 292 293 291 289 286 286 285 280 276 272 271 269 270 269 270 273 276 280 282
247 250 249 247 252 258 262 265 270 277 281 282 280 279 270 261 265 271 279 282 283 283 284 286 286 285 288 290 290 292 295 294 290 286 284 285 285 281 276 274 272 272 271 268 267 267 270 275 278
248 250 250 253 255 254 255 262 268 275 278 279 280 279 278 274 274 275 275 277 281 284 285 283 281 277 276 279 283 288 290 291 290 289 288 286 285 281 277 274 273 271 269 268 267 265 267 270 274
250 253 251 255 262 263 263 267 275 274 273 278 278 276 276 274 274 275 276 278 282 286 289 289 285 282 277 274 275 278 281 282 284 285 287 287 286 284 280 276 273 270 270 271 270 270 271 272 275
249 257 253 258 268 270 272 273 271 268 274 276 275 274 273 273 274 276 280 285 288 289 290 288 286 284 280 277 277 279 279 277 276 276 278 280 281 280 279 277 275 274 274 274 273 273 272 272 273
255 247 253 261 262 267 272 277 272 272 273 275 273 272 273 275 277 280 284 286 287 289 288 287 285 283 281 280 281 281 282 280 279 278 278 279 279 279 279 278 277 276 275 274 273 272 272 273 274
242 252 267 260 261 262 265 267 270 274 277 277 275 275 277 278 281 283 286 287 288 288 288 288 286 285 284 284 284 285 285 285 283 282 282 283 283 282 281 280 279 279 278 277 276 275 274 273 273
241 251 248 268 266 264 264 263 264 269 273 278 280 279 278 280 281 283 286 288 289 289 290 290 289 287 286 286 286 287 288 288 287 287 287 286 285 284 284 283 281 281 279 278 277 277 277 277 277
252 256 245 264 267 269 269 264 268 269 274 276 278 280 283 286 287 290 289 290 290 290 291 290 288 288 288 288 289 290 290 289 288 288 287 287 286 286 285 284 283 282 280 279 278 277 278 277 278
247 246 245 262 269 272 273 270 271 274 273 272 275 280 285 286 290 288 288 289 289 289 288 289 289 288 288 289 289 289 289 289 288 287 287 287 287 287 287 287 286 285 285 285 285 284 284 285 283
241 251 258 259 272 276 275 273 267 273 275 277 281 283 283 285 285 286 289 288 289 288 288 287 287 289 289 289 289 288 288 288 288 289 289 290 290 290 290 288 287 287 287 287 286 285 284 283 283
246 251 261 267 270 273 274 271 269 270 275 279 283 284 286 286 286 286 287 287 286 286 286 288 289 289 288 288 287 288 289 290 291 292 290 290 289 288 287 287 287 287 287 286 285 285 284 283 284
248 254 259 264 267 271 274 274 271 273 278 281 283 286 287 287 286 285 285 285 287 290 291 291 291 290 290 290 289 290 291 290 290 289 290 290 289 289 288 288 288 287 287 286 285 284 284 284 284
249 252 258 264 268 270 278 281 285 280 282 284 286 286 285 284 285 285 284 286 287 288 289 290 290 289 289 289 290 290 290 290 290 290 290 290 290 289 289 289 288 287 286 285 284 284 284 285 285
246 254 260 265 270 275 282 284 289 291 289 286 285 284 283 283 283 284 287 289 290 290 288 287 286 287 289 290 290 290 290 291 292 292 292 291 291 290 289 289 288 287 285 285 285 286 286 287 287
252 259 267 268 272 281 285 286 287 289 288 288 288 288 288 288 288 289 289 287 286 285 286 287 289 290 290 291 292 292 292 292 293 292 292 291 291 290 290 290 289 288 287 287 288 289 290 291 291
258 265 272 278 283 284 286 286 289 290 291 292 292 292 291 290 290 289 289 288 288 288 289 290 291 292 293 293 293 293 293 293 293 292 293 293 293 293 293 293 293 293 294 295 295 294 294 292 291
264 270 274 278 281 284 286 289 291 293 295 293 292 292 292 292 291 290 289 288 288 289 291 293 293 293 294 294 294 295 294 294 295 296 296 296 296 297 297 298 299 298 298 297 296 295 295 294 292
267 273 276 279 283 286 290 292 293 294 293 292 292 293 293 292 291 291 291 292 293 293 292 293 294 295 296 296 296 296 296 297 298 298 298 299 300 300 300 299 299 299 299 298 297 295 294 293 292
272 277 278 281 285 288 291 291 296 294 293 292 293 292 292 292 292 292 293 293 293 293 294 296 297 298 297 297 298 298 298 299 301 301 300 301 302 302 302 302 301 300 299 298 297 297 295 293 291
275 277 279 281 285 288 292 293 296 293 292 292 292 293 293 292 293 293 293 293 295 297 298 298 298 298 298 296 297 299 300 300 301 302 303 303 303 303 303 302 302 302 301 300 299 297 294 292 291